Regional Weather Roundup
Issued by NWS Upton, NY

Current Version | Previous Version | Graphics & Text | Print | Product List | Glossary Off
Versions: 1 2 3 4 5 6 7 8 9 10 11 12 13 14 15 16 17 18 19 20 21 22 23 24 25 26 27 28 29 30 31 32 33 34 35 36 37 38 39 40 41 42 43 44 45 46 47 48 49 50

000
ASUS41 KOKX 260304
RWROKX

REGIONAL WEATHER ROUNDUP
NATIONAL WEATHER SERVICE NEW YORK NY
1100 PM EDT MON JUL 25 2016

NOTE: "FAIR" INDICATES FEW OR NO CLOUDS BELOW 12,000 FEET WITH NO
SIGNIFICANT WEATHER AND/OR OBSTRUCTIONS TO VISIBILITY.

NYZ071-072-176-178-NJZ106-104-260400-
NEW YORK CITY METRO AREA

CITY           SKY/WX    TMP DP  RH WIND       PRES   REMARKS
Central Park   CLOUDY    75  73  93 VRB3      29.90S FOG
LaGuardia APRT MOCLDY    77  73  87 SW7       29.87S
Kennedy INTL   CLOUDY    74  70  87 SW14      29.89S
Newark/Liberty CLOUDY    75  73  93 SW10      29.88R
Bronx Bot Gard   N/A     75  72  88 SW2       29.90R
Wall St Helipt CLOUDY    75  73  94 SW7       29.89S
Teterboro      CLOUDY    76  73  91 W6        29.87R
$$

NYZ177-179-078>081-260400-
LONG ISLAND NEW YORK

CITY           SKY/WX    TMP DP  RH WIND       PRES   REMARKS
Farmingdale    CLOUDY    74  71  91 SW8       29.87S
MacArthur/ISP  CLOUDY    74  72  93 SW9       29.85F
Shirley        CLOUDY    74  71  91 SW8       29.86F
Riverhead      NOT AVBL
Westhampton    CLOUDY    72  68  87 SW10      29.86S
Southhampton     N/A     72  70  94 SW10      29.80F
Bridgehampton    N/A     72  70  94 S3        29.83R
East Hampton   FAIR      73  69  88 SW14G21   29.83R
Montauk          N/A     73  71  93 SW9       29.82S
$$

NYZ052-065-067-260400-
HUDSON VALLEY

CITY           SKY/WX    TMP DP  RH WIND       PRES   REMARKS
White Plains   MOCLDY    72  70  93 W5        29.87F
Newburgh       CLEAR     70  70 100 W9        29.91R
Montgomery     CLEAR     70  69  97 SW3       29.89S
Poughkeepsie   CLEAR     74  70  87 S5        29.87S
Albany         PTCLDY    75  70  84 S3        29.85R
$$

NJZ001-105-106-008-010-013-015-019>022-104-260400-
NEW JERSEY

CITY           SKY/WX    TMP DP  RH WIND       PRES   REMARKS
Newark/Liberty CLOUDY    75  73  93 SW10      29.88R
Teterboro      CLOUDY    76  73  91 W6        29.87R
Caldwell       CLOUDY    74  72  93 SW3       29.89S
Morristown     CLOUDY    73  70  88 CALM      29.90R
Somerville     MOCLDY    73  71  93 CALM      29.89S
Linden         FAIR      74  72  92 CALM      29.90S
Sussex         PTCLDY    70  70 100 CALM      29.91S
Abdover          N/A     70  69  97 SW5       29.92S
Trenton        CLOUDY    74  71  91 SW7       29.91R
Millville      TSTM      77  69  76 W9        29.95S
Atlantic City  LGT RAIN  75  72  90 CALM      29.92F
Wrightstown    MOCLDY    73  72  98 SW6       29.89S
Toms River     LGT RAIN  73  72  96 S3        29.92F
Belmar         CLOUDY    73  72  96 SW8G17    29.91S
$$

PAZ047>061-062-071-260400-
EASTERN PENNSYLVANIA

CITY           SKY/WX    TMP DP  RH WIND       PRES   REMARKS
Philadelphia   CLOUDY    75  72  90 S9        29.92F
Allentown      PTCLDY    71  68  90 W3        29.93R
Scranton       CLEAR     70  68  93 SW7       29.94S
$$

CTZ002-004>006-009-010-012-RIZ004-006-007-MAZ004-011-015-260400-
SOUTHERN NEW ENGLAND
 IN CT

CITY           SKY/WX    TMP DP  RH WIND       PRES   REMARKS
Bradley INTL   CLOUDY    75  69  81 CALM      29.83R
Hartford       CLOUDY    78  70  76 SW5       29.84R
Danbury        CLOUDY    71  69  93 W6        29.89S
Wtrbury/Oxford   N/A     70  66  88 CALM      29.89S
Bridgeport     CLOUDY    74  70  87 W7        29.85R
Meriden        CLOUDY    73  68  84 W3        29.85R
New Haven      CLOUDY    73  70  90 W5        29.85R
Chester        MOCLDY    73  73 100 CALM      29.86R
Groton         CLOUDY    76  72  87 W9        29.83R
Wilimantic     NOT AVBL

 IN RI

CITY           SKY/WX    TMP DP  RH WIND       PRES   REMARKS
Providence     CLOUDY    77  71  82 W8        29.80F
Block Island   CLOUDY    72  72 100 SW12      29.81F FOG
Westerly       CLOUDY    75  71  87 W7        29.83R
 IN MA

CITY           SKY/WX    TMP DP  RH WIND       PRES   REMARKS
Boston         CLOUDY    80  70  71 SW14      29.77F
Worchester     CLOUDY    74  68  81 W15       29.84S
Westfield      PTCLDY    77  68  73 SW3       29.83S
Provincetown   CLOUDY    73  70  90 S12       29.78F
Nantucket      CLOUDY    73  71  93 S14       29.81F
$$

ANZ330-335-338-340-345-350-353-355-260400-
COASTAL MARINE OBSERVATIONS


STATION/POSITION TIME  SKY/WX   TEMP    WIND        PRES    VSBY  WAVE
                                AIR SEA DIR/SP/G                  HT/PER
                 (UTC)          (F)     (DEG/KT/KT) (MB)    (MI)  (FT/S)
NY HARB ENTRANCE 0150            74 72  180/ 14/ 16 1011.2          2/ 4
20S FIRE ISLAND  0150            74 74  200/ 17/ 21 1012.0          2/ 5
GREAT SOUTH BAY  0200            77 81  240/ 16/ 21   N/A
23 SSW MONTAUK P 0150            74 73  220/ 10/ 12 1010.8          2/ 5
15 E BARNEGAT LI NOT AVBL
HUDSON CANYON    0150            75 77              1014.2          4/ 4
KINGS POINT      0200            75 74                N/A
EXECUTION ROCKS  0200            73     230/  4/  6   N/A
CENTRAL LI SOUND 0200            74 75  210/ 14/ 17   N/A           1/ 3
EASTERN LI SOUND 0200            72 69  210/ 10/ 14   N/A
ROBBINS REEF     0200            75     230/  2/  3   N/A
$$


>>>>>>>>>>>>>>>>>>>>>>>>>>>> KEY <<<<<<<<<<<<<<<<<<<<<<<<<<<
>                                                          <
>     SKY/WX - Sky Condition/Present Weather               <
>     TMP    - Temperature in Fahrenheit                   <
>     DP     - Dew Point in Fahrenheit                     <
>     RH     - Relative Humidity in Percent                <
>     WIND   - Direction (from) and Speed in MPH           <
>     PRES   - Mean Sea Level Pressure (inches of Hg)      <
>     WCI    - Wind Chill Index                            <
>     VSB    - VISIBILITY IN MILES                         <
>     HX     - HEAT INDEX                                  <
>     TC     - TEMPERATURE IN CELSIUS                      <
>     VRB    - VARIABLE WIND DIRECTION                     <
>                                                          <
>>>>>>>>>>>>>>>>>>>>>>>>>>>> KEY <<<<<<<<<<<<<<<<<<<<<<<<<<<



USA.gov is the U.S. government's official web portal to all federal, state and local government web resources and services.